Weather reports worldwide

Advertisment
Forli, Italy (16147): temperature & dewpoint: 26.10.2020 02:00:00 - 01.11.2020 02:00:00 (CET)Forli, Italy (16147): wind speed: 26.10.2020 02:00:00 - 01.11.2020 02:00:00 (CET)Forli, Italy (16147): wind direction: 26.10.2020 02:00:00 - 01.11.2020 02:00:00 (CET)Forli, Italy (16147): reduced air pressure: 26.10.2020 02:00:00 - 01.11.2020 02:00:00 (CET)Forli, Italy (16147): visibility: 26.10.2020 02:00:00 - 01.11.2020 02:00:00 (CET)Forli, Italy (16147): precipitation: 26.10.2020 02:00:00 - 01.11.2020 02:00:00 (CET)
Date & Time tt [°C] td [°C] ff [km/h] ff [kn] dd ppp [hPa] vv [km] rr [mm]
01.11.2020 02:00:00 - - - - - - - -
01.11.2020 01:00:00 11,2 9,6 7 4 SSW 1020,2 - 0,0
01.11.2020 00:00:00 - - - - - - - -
31.10.2020 23:00:00 11,0 9,9 3 2 S 1020,6 - 0,0
31.10.2020 22:00:00 11,0 9,9 1 1 W 1020,5 - 0,0
31.10.2020 21:00:00 12,5 10,9 0 0 W 1019,9 - 0,0
31.10.2020 20:00:00 13,2 11,6 0 0 N 1019,7 2,0 0,0
31.10.2020 19:00:00 13,3 11,5 0 0 N 1019,7 2,0 0,0
31.10.2020 18:00:00 14,3 11,8 4 2 - 1019,5 2,0 0,0
31.10.2020 17:00:00 15,9 12,5 8 4 ENE 1019,3 2,0 0,0
31.10.2020 16:00:00 17,8 11,6 4 2 - 1019,7 10 0,0
31.10.2020 15:00:00 18,0 11,6 4 2 - 1019,8 10 0,0
31.10.2020 14:00:00 18,0 11,3 4 2 - 1020,1 10 0,0
31.10.2020 13:00:00 18,6 10,9 4 2 - 1020,7 10 0,0
31.10.2020 12:00:00 17,2 11,0 2 1 - 1021,5 10 0,0
31.10.2020 11:00:00 16,4 10,7 2 1 - 1021,9 10 0,0
31.10.2020 10:00:00 15,6 10,1 0 0 W 1022,1 10 0,0
31.10.2020 09:00:00 13,3 9,5 2 1 SW 1022,1 - 0,0
31.10.2020 08:00:00 10,6 8,4 4 2 SSW 1021,8 - 0,0
31.10.2020 07:00:00 9,8 7,9 1 0 SW 1021,6 - 0,0
31.10.2020 06:00:00 10,0 7,9 3 2 SW 1021,5 - 0,0
31.10.2020 05:00:00 9,9 8,0 2 1 SW 1021,8 - 0,0
31.10.2020 04:00:00 10,5 8,4 0 0 SW 1021,5 - 0,0
31.10.2020 03:00:00 10,4 8,5 1 1 S 1021,6 - 0,0
31.10.2020 02:00:00 10,6 8,7 - - - 1022,0 - 0,0
31.10.2020 01:00:00 11,2 8,9 6 3 SW 1022,0 - 0,0
31.10.2020 00:00:00 11,5 9,4 1 1 SSW 1022,2 - 0,0
30.10.2020 23:00:00 11,9 9,8 0 0 S 1022,2 - 0,0
30.10.2020 22:00:00 11,9 10,0 1 1 WSW 1021,9 - 0,0
30.10.2020 21:00:00 12,6 10,3 6 3 SSW 1021,6 - 0,0
30.10.2020 20:00:00 13,4 10,9 3 1 S 1021,7 - 0,0
30.10.2020 19:00:00 14,4 10,8 - - - 1021,5 - -
30.10.2020 18:00:00 15,5 10,9 4 2 - 1021,0 10 0,0
30.10.2020 17:00:00 17,2 11,0 2 1 NE 1020,4 - 0,0
30.10.2020 16:00:00 18,0 10,6 4 2 - 1020,3 10 0,0
30.10.2020 15:00:00 18,3 10,4 4 2 - 1020,3 10 0,0
30.10.2020 14:00:00 18,3 10,1 0 0 N 1020,7 10 0,0
30.10.2020 13:00:00 17,7 9,8 4 2 - 1020,9 10 0,0
30.10.2020 12:00:00 17,4 9,8 2 1 - 1021,3 10 0,0
30.10.2020 11:00:00 16,6 9,3 4 2 - 1021,6 10 0,0
30.10.2020 10:00:00 15,5 9,2 2 1 S 1021,5 10 0,0
30.10.2020 09:00:00 13,4 9,1 1 1 SSW 1021,5 - 0,0
30.10.2020 08:00:00 11,4 8,4 0 0 SE 1020,9 - 0,0
30.10.2020 07:00:00 10,0 7,9 6 3 S 1020,3 - 0,0
30.10.2020 06:00:00 10,2 8,1 1 1 SSW 1020,4 - 0,0
30.10.2020 05:00:00 10,2 8,1 1 1 S 1020,5 - 0,0
30.10.2020 04:00:00 10,1 8,0 4 2 SSW 1019,9 - 0,0
30.10.2020 03:00:00 10,1 8,2 4 2 S 1019,9 - 0,0
30.10.2020 02:00:00 10,5 8,3 0 0 SW 1019,8 - 0,0
30.10.2020 01:00:00 10,5 8,4 2 1 S 1019,5 - 0,0
30.10.2020 00:00:00 11,0 8,4 - - - 1019,8 - 0,0
29.10.2020 23:00:00 11,2 8,8 0 0 SSW 1020,0 - 0,0
29.10.2020 22:00:00 11,2 8,9 3 1 SSW 1019,6 - 0,0
29.10.2020 21:00:00 12,3 9,3 4 2 SSW 1019,1 - 0,0
29.10.2020 20:00:00 12,5 9,3 3 2 SSE 1018,1 - 0,0
29.10.2020 19:00:00 13,4 9,6 2 1 SW 1017,9 - 0,0
29.10.2020 18:00:00 15,2 9,8 2 1 - 1017,3 10 0,0
29.10.2020 17:00:00 16,4 9,6 0 0 N 1016,7 10 0,0
29.10.2020 16:00:00 17,3 8,7 4 2 - 1016,6 10 0,0
29.10.2020 15:00:00 17,7 8,8 5 3 - 1016,4 10 0,0
29.10.2020 14:00:00 17,5 8,6 5 3 - 1015,9 10 0,0
29.10.2020 13:00:00 16,3 8,8 2 1 - 1016,0 10 0,0
29.10.2020 12:00:00 15,6 9,0 0 0 N 1016,9 10 0,0
29.10.2020 11:00:00 13,9 7,9 0 0 N 1017,1 10 0,0
29.10.2020 10:00:00 12,4 8,1 0 0 SW 1017,0 10 0,0
29.10.2020 09:00:00 11,5 7,4 1 1 WNW 1016,3 - 0,0
29.10.2020 08:00:00 11,4 7,9 1 1 NNW 1015,9 - 0,0
29.10.2020 07:00:00 10,9 7,2 0 0 SW 1015,1 - 0,0
29.10.2020 06:00:00 9,3 6,2 4 2 SE 1014,3 - 0,0
29.10.2020 05:00:00 10,1 6,4 2 1 SSW 1015,3 - 0,0
29.10.2020 04:00:00 9,6 6,0 3 1 S 1015,2 - 0,0
29.10.2020 03:00:00 11,0 6,3 7 4 WSW 1015,6 - 0,0
29.10.2020 02:00:00 10,0 6,0 4 2 SSE 1015,2 - 0,0
29.10.2020 01:00:00 10,5 6,4 2 1 SW 1015,7 - 0,0
29.10.2020 00:00:00 11,4 6,3 8 4 SSW 1015,7 - 0,0
28.10.2020 23:00:00 10,1 6,4 4 2 S 1015,6 - 0,0
28.10.2020 22:00:00 10,5 6,4 2 1 S 1015,9 - 0,0
28.10.2020 21:00:00 11,0 7,3 4 2 SSW 1015,9 - 0,0
28.10.2020 20:00:00 11,8 7,9 8 4 SW 1015,8 - 0,0
28.10.2020 19:00:00 12,2 8,5 7 4 SW 1015,6 - 0,0
28.10.2020 18:00:00 14,8 8,3 0 0 N 1015,1 10 0,0
28.10.2020 17:00:00 15,8 7,6 0 0 N 1015,1 10 0,0
28.10.2020 16:00:00 16,8 7,7 0 0 N 1014,7 10 0,0
28.10.2020 15:00:00 15,9 8,1 2 1 - 1014,9 10 0,0
28.10.2020 14:00:00 15,1 7,9 8 4 NNW 1015,1 10 0,0
28.10.2020 13:00:00 15,0 6,0 4 2 - - 10 -
28.10.2020 12:00:00 14,7 6,8 13 7 WNW 1015,9 10 0,0
28.10.2020 11:00:00 15,3 7,3 15 8 NW 1015,6 10 0,0
28.10.2020 10:00:00 14,7 7,3 3 2 W 1015,5 10 0,0
28.10.2020 09:00:00 12,1 7,4 3 2 SW 1015,5 - 0,0
28.10.2020 08:00:00 9,3 5,8 4 2 SW 1015,0 - 0,0
28.10.2020 07:00:00 8,3 5,6 6 3 S 1014,4 - 0,0
28.10.2020 06:00:00 8,4 5,7 5 3 WSW 1014,2 - 0,0
28.10.2020 05:00:00 8,5 5,8 6 4 S 1014,1 - 0,0
28.10.2020 04:00:00 8,5 6,0 6 3 WSW 1013,7 - 0,0
28.10.2020 03:00:00 8,6 6,0 4 2 WSW 1014,1 - 0,0
28.10.2020 02:00:00 8,8 6,4 2 1 SW 1014,1 - 0,0
28.10.2020 01:00:00 9,2 6,6 1 1 W 1013,7 - 0,0
28.10.2020 00:00:00 9,7 7,0 5 3 W 1013,2 - 0,0
27.10.2020 23:00:00 10,2 7,4 9 5 SSW 1012,9 - 0,0
27.10.2020 22:00:00 10,3 8,1 4 2 SW 1012,6 - 0,0
27.10.2020 21:00:00 11,0 8,4 5 3 S 1012,2 - 0,0
27.10.2020 20:00:00 11,6 8,6 2 1 SW 1011,3 - 0,0
27.10.2020 19:00:00 13,1 9,0 0 0 NW 1010,8 - 0,0
27.10.2020 18:00:00 14,3 8,5 2 1 - 1010,0 10 0,0
27.10.2020 17:00:00 15,1 8,3 4 2 - 1009,3 10 0,0
27.10.2020 16:00:00 15,2 8,2 9 5 N 1008,6 10 0,0
27.10.2020 15:00:00 15,6 8,3 9 5 N 1008,4 10 0,0
27.10.2020 14:00:00 16,0 8,2 15 8 NNW 1007,7 10 0,0
27.10.2020 13:00:00 16,0 8,5 15 8 SSW 1007,4 10 0,0
27.10.2020 12:00:00 17,8 5,7 21 11 SW 1007,1 10 0,0
27.10.2020 11:00:00 17,3 5,9 21 11 WSW 1006,4 10 0,0
27.10.2020 10:00:00 16,7 5,9 20 11 WSW 1005,8 10 0,0
27.10.2020 09:00:00 14,9 7,7 6 4 WSW 1005,3 - 0,0
27.10.2020 08:00:00 13,6 7,6 6 3 WSW 1004,8 - 0,0
27.10.2020 07:00:00 14,2 7,3 5 3 S 1004,2 - 0,0
27.10.2020 06:00:00 14,4 7,7 12 6 SSW 1003,6 - 0,0
27.10.2020 05:00:00 14,3 8,7 11 6 SW 1003,2 - 0,0
27.10.2020 04:00:00 14,0 9,8 11 6 SW 1003,5 - 0,0
27.10.2020 03:00:00 14,4 10,4 7 4 S 1003,1 - 0,0
27.10.2020 02:00:00 13,7 11,6 4 2 SSW 1002,9 - 0,0
27.10.2020 01:00:00 13,3 12,0 5 3 SW 1002,5 - 2,6
27.10.2020 00:00:00 13,8 11,5 7 4 WSW 1003,5 - 2,4
26.10.2020 23:00:00 15,5 10,9 12 6 SSW 1003,2 - 0,8
26.10.2020 22:00:00 19,6 8,0 18 10 SSE 1002,5 - 0,0
26.10.2020 21:00:00 19,4 8,4 25 14 SE 1002,0 - 0,0
26.10.2020 20:00:00 19,4 8,1 15 8 SE 1002,7 - 0,0
26.10.2020 19:00:00 19,1 8,1 8 4 SE 1003,1 - 0,0
26.10.2020 18:00:00 20,1 6,8 15 8 S 1002,9 10 0,0
26.10.2020 17:00:00 20,6 6,2 11 6 S 1003,4 10 0,0
26.10.2020 16:00:00 20,5 9,7 8 4 ESE 1003,4 10 0,0
26.10.2020 15:00:00 21,4 9,6 16 9 ESE 1003,0 10 0,0
26.10.2020 14:00:00 21,1 9,0 13 7 SSE 1004,0 10 0,0
26.10.2020 13:00:00 21,2 9,1 16 9 SSE 1005,0 10 0,0
26.10.2020 12:00:00 20,6 9,2 21 11 S 1005,9 10 0,0
26.10.2020 11:00:00 20,2 9,1 21 11 S 1006,4 10 0,0
26.10.2020 10:00:00 18,6 10,7 13 7 S 1006,8 10 0,0
26.10.2020 09:00:00 17,4 10,8 0 0 SE 1007,4 - 0,0
26.10.2020 08:00:00 14,6 9,4 2 1 E 1007,7 - 0,0
26.10.2020 07:00:00 13,1 9,0 6 3 WSW 1007,8 - 0,0
26.10.2020 06:00:00 16,1 9,3 6 4 SSW 1007,9 - 0,0
26.10.2020 05:00:00 17,2 8,6 5 3 SSW 1008,5 - 0,0
26.10.2020 04:00:00 15,2 8,4 5 3 W 1008,7 - 0,0
26.10.2020 03:00:00 15,6 8,3 8 4 S 1009,3 - 0,0
26.10.2020 02:00:00 15,6 7,9 9 5 SSE 1009,9 - 0,0

tt = temperature
td = dewpoint
ff = wind speed
dd = wind direction
ppp = reduced air pressure
vv = visibility
rr = precipitation

Next stations